Theta_e
319 316 315 314 314 313 313 311 309 308 308 309 309 309 310 309 308 308 310 309 309 312 312 312 313 315 316 318 321 320 322 322 322 328 330 331 331 330 329 330 331 331 332 330 330 332 334 333 335 341 344 345 344 343
319 316 315 315 314 314 314 313 311 309 309 309 309 310 310 309 308 307 309 310 309 309 310 309 310 311 313 314 318 319 320 321 322 326 328 332 332 332 333 330 332 333 330 331 330 332 336 334 341 340 339 343 347 348
320 317 315 315 314 314 313 313 312 310 310 309 309 309 309 309 308 307 308 309 309 310 310 312 315 313 312 311 312 317 318 319 320 319 322 325 332 335 334 332 331 333 333 330 335 330 332 333 333 335 337 340 344 350
319 316 315 315 314 314 313 313 313 312 311 310 310 309 309 309 308 308 308 308 308 309 310 316 313 315 314 314 313 312 316 317 318 319 321 325 329 332 336 334 335 334 336 335 335 336 333 331 331 337 338 342 348 350
317 317 316 315 314 314 313 313 313 312 312 311 310 309 309 308 308 307 307 308 308 308 312 313 311 316 317 315 315 314 315 316 319 321 321 324 326 329 332 331 333 333 333 334 330 333 335 335 341 343 342 346 351 354
317 316 315 314 314 314 313 313 313 312 312 311 310 309 309 308 307 306 310 310 308 308 309 313 316 317 318 320 319 318 317 318 319 320 321 322 322 324 332 334 333 331 330 330 332 335 336 340 344 344 347 352 353 353
315 315 315 314 314 313 313 312 312 311 311 310 309 309 308 307 306 308 313 311 309 308 309 313 318 320 318 318 320 319 318 319 320 320 320 322 324 323 329 332 332 330 330 332 331 332 342 344 345 349 352 349 344 347
315 314 314 313 313 312 313 312 310 310 310 310 309 308 306 306 306 306 307 308 307 308 310 316 319 322 322 327 324 320 321 320 321 322 321 321 323 324 328 330 330 330 331 334 335 336 341 343 344 344 344 345 347 348
313 313 312 312 312 311 311 310 310 310 310 310 308 305 307 307 310 310 309 308 307 308 314 318 322 325 322 324 325 322 322 325 323 324 322 322 323 327 327 330 329 330 334 338 338 339 341 345 345 344 344 344 346 347
311 311 310 310 309 308 309 310 310 310 310 308 306 309 314 310 307 307 308 312 310 310 311 316 317 322 321 323 324 327 326 327 327 325 322 323 325 324 325 327 326 327 330 333 335 340 341 343 345 345 345 345 346 346
310 309 309 308 307 306 307 309 310 309 308 309 311 312 308 307 310 313 316 316 314 317 315 317 318 320 318 323 324 322 329 330 329 327 324 322 323 324 324 324 325 325 325 332 333 332 333 336 340 342 343 345 347 347
308 308 307 305 305 306 308 309 309 308 308 308 307 306 306 309 313 317 320 320 319 322 321 322 323 320 322 322 323 324 330 330 333 327 327 324 323 324 324 324 324 325 324 329 331 332 334 337 336 337 339 339 341 343
307 306 305 305 305 307 308 309 308 307 306 307 306 309 311 313 317 320 323 322 320 320 320 322 323 324 321 326 327 325 329 330 332 332 328 327 342 335 333 326 323 326 325 332 334 335 337 338 337 338 339 337 337 339
306 304 304 306 307 308 309 308 307 307 308 309 312 315 316 319 319 320 321 321 320 319 319 321 324 325 326 326 328 328 326 329 333 337 333 337 333 335 337 333 329 328 331 335 337 337 338 338 338 336 336 336 337 339
304 304 306 307 308 308 307 307 307 307 309 311 311 315 315 316 317 316 317 319 319 319 319 322 324 324 325 324 327 328 329 333 333 335 336 332 332 334 337 335 332 333 336 338 337 337 336 336 336 336 334 334 335 336
304 306 308 308 308 308 308 307 307 307 307 310 309 312 312 314 317 314 317 318 318 318 319 321 325 325 326 326 327 330 329 335 334 331 330 332 334 334 335 336 337 337 337 336 335 335 334 334 333 332 330 331 332 333
306 308 308 308 308 307 306 307 308 308 310 311 311 311 311 311 314 314 316 317 318 319 319 319 322 322 322 329 329 330 333 331 330 330 332 334 334 334 334 334 333 333 333 332 332 330 329 328 328 328 331 328 327 328
307 308 308 307 307 306 307 307 308 310 311 311 312 312 312 312 312 312 312 312 315 318 318 320 318 322 325 324 328 328 328 328 328 330 330 329 331 331 331 332 331 331 331 330 329 328 328 327 328 329 328 327 326 326
307 307 307 306 306 307 308 309 308 311 311 312 312 312 313 312 312 312 312 313 314 316 318 318 321 325 326 327 328 325 323 324 328 329 328 327 327 328 328 328 328 329 331 330 329 328 327 326 326 324 324 324 324 324
306 305 306 306 305 307 309 310 309 311 312 312 312 312 312 312 313 313 313 313 314 317 319 321 322 325 327 325 325 324 322 320 327 330 329 327 325 326 328 329 328 328 328 328 326 326 326 326 324 323 323 323 323 324
305 307 306 307 307 306 307 309 310 310 311 311 310 309 312 314 316 315 315 314 316 317 318 318 319 322 322 322 323 321 320 320 321 323 326 328 326 327 328 328 327 326 327 327 327 326 325 325 325 324 322 323 323 323
306 306 308 307 308 308 308 307 310 310 310 311 311 312 314 315 316 316 315 317 316 316 318 320 319 318 318 319 319 322 319 318 318 320 321 322 329 331 332 327 326 327 326 325 324 325 324 324 325 325 323 323 323 324
305 305 307 307 309 308 309 308 310 311 312 314 314 315 316 319 319 317 318 319 319 321 323 322 321 319 320 320 319 318 321 318 319 320 321 324 324 327 329 329 327 326 325 325 325 325 325 325 324 323 322 322 323 323
305 307 309 309 308 310 309 311 310 310 312 314 315 317 318 319 319 321 321 319 319 320 320 319 318 319 319 321 322 322 321 321 321 321 319 321 324 325 324 326 326 326 326 326 325 326 326 326 326 325 323 323 324 324
309 308 306 304 308 310 311 312 313 314 316 315 317 319 318 318 321 321 321 320 320 320 318 318 318 319 320 320 321 320 320 322 324 324 321 322 322 322 323 323 323 324 324 325 326 326 327 326 325 325 323 323 323 322
308 308 308 309 310 310 312 314 314 314 314 316 316 315 316 319 321 322 321 320 319 317 317 318 319 321 319 322 323 321 320 320 320 322 322 321 321 322 322 322 322 322 322 323 325 325 326 326 325 325 323 322 322 322
310 308 308 307 309 310 312 312 312 313 315 315 315 315 317 319 321 323 318 316 317 314 316 316 315 318 321 322 322 321 319 319 318 320 320 320 320 320 320 322 323 322 322 323 324 326 326 326 325 325 324 322 322 322
308 309 310 311 312 311 312 312 313 314 314 313 314 317 318 319 319 317 315 313 312 312 314 315 319 320 322 322 321 320 320 319 317 317 318 319 319 319 318 319 319 322 323 323 323 325 326 325 325 324 325 325 324 324
308 309 309 310 310 311 311 312 312 312 312 311 313 313 314 314 314 313 312 311 312 312 314 319 323 323 320 320 319 320 317 317 318 319 321 321 321 320 319 319 320 322 323 323 322 322 325 324 324 325 324 324 324 324
309 308 309 311 312 313 312 311 311 310 310 312 313 312 312 312 311 313 313 315 316 320 323 322 320 323 323 323 323 321 322 320 318 320 322 322 322 322 323 324 324 324 324 323 322 323 322 324 324 323 322 323 323 324
309 310 311 311 312 313 313 312 311 311 311 312 312 313 315 316 315 316 317 318 319 320 322 323 323 322 320 320 321 323 324 322 321 322 322 321 321 323 325 324 325 325 326 324 324 323 324 323 324 324 323 323 322 321
309 310 312 315 316 314 312 313 315 317 320 321 323 320 320 320 322 323 321 321 320 322 321 321 323 323 322 321 320 321 321 322 323 324 325 321 321 323 325 325 325 325 325 325 323 323 323 323 322 322 323 324 323 323
312 313 314 314 316 319 318 319 322 322 321 322 321 321 320 321 320 320 317 319 319 320 321 322 323 324 325 324 324 325 325 325 323 322 322 322 321 322 322 324 324 324 324 324 324 324 324 324 325 325 325 326 326 326
Wind_Speed
20 19 19 18 18 18 17 17 17 17 16 15 14 13 13 12 9 8 10 9 6 4 14 17 16 15 13 11 9 7 7 4 4 5 8 9 8 9 14 17 20 16 13 12 13 13 13 10 8 10 5 4 2 3
21 19 19 19 18 18 17 17 17 17 17 16 15 14 13 13 10 9 9 7 11 5 11 31 34 35 30 25 12 6 9 5 3 4 3 5 7 4 11 12 3 13 14 11 9 11 5 2 2 4 5 5 4 5
21 18 18 19 19 18 18 18 17 17 17 17 16 16 15 14 13 11 12 13 7 4 9 12 10 15 20 31 33 10 7 6 4 2 5 3 5 4 8 14 10 7 3 7 3 8 4 3 4 5 6 6 5 5
20 17 16 18 18 18 18 18 17 17 17 16 16 16 16 15 15 15 14 12 8 3 4 4 4 2 7 13 21 33 22 2 4 5 6 6 5 1 4 6 8 2 8 6 6 4 5 9 10 5 7 6 5 7
18 17 16 15 16 17 16 17 17 17 17 18 17 17 18 17 16 17 20 22 21 6 3 8 30 10 6 15 19 22 24 17 8 6 6 7 6 5 5 4 8 5 6 7 7 2 5 10 7 5 7 8 10 12
17 16 16 15 15 15 15 16 16 18 19 20 20 19 18 16 15 8 4 5 16 18 2 4 7 8 5 5 14 15 13 11 9 5 6 6 12 4 4 7 5 6 4 7 5 5 5 7 4 6 8 11 13 13
17 16 15 14 14 15 17 17 17 18 20 21 23 23 21 19 12 7 3 2 10 17 2 4 4 4 6 4 5 6 11 7 6 7 7 10 6 4 7 8 3 4 3 5 6 4 4 7 5 8 12 13 14 15
17 16 15 16 16 17 16 17 18 19 21 23 25 27 23 10 7 10 18 9 15 4 2 3 5 5 4 4 4 5 7 7 8 7 6 10 8 6 5 10 4 2 1 2 6 8 3 7 11 12 14 15 17 16
17 16 15 15 14 16 16 17 17 19 22 23 26 16 2 2 3 1 5 15 17 3 2 3 3 3 2 1 1 2 5 6 5 7 10 7 11 10 9 8 3 4 3 3 7 11 10 10 11 11 12 12 14 13
15 15 14 15 16 16 15 15 15 17 20 19 6 5 2 4 3 6 3 3 3 4 4 4 3 7 5 2 2 1 2 6 5 9 7 12 13 16 16 9 2 3 6 8 9 13 12 14 12 11 10 9 11 11
16 16 17 17 16 17 14 14 13 15 8 3 3 2 5 9 3 3 3 4 4 4 4 4 8 9 3 6 3 2 3 4 5 6 7 9 12 18 17 14 12 7 6 8 9 7 7 8 12 11 12 9 10 11
16 16 16 18 18 14 12 11 10 5 3 5 9 9 5 2 3 4 4 3 5 2 1 3 3 3 4 4 3 3 4 1 5 3 5 8 9 14 15 18 17 11 4 3 1 5 12 11 10 10 12 12 10 13
15 16 16 17 14 13 11 10 8 7 8 3 2 3 2 2 3 4 2 2 4 1 2 3 2 3 3 6 3 3 3 4 2 4 5 2 7 0 6 10 14 8 7 7 9 10 13 13 11 12 12 12 13 12
15 14 16 16 13 12 11 6 3 3 3 2 2 3 4 4 3 3 4 2 2 3 6 7 3 2 1 2 3 4 4 4 3 6 4 5 7 7 3 7 10 12 12 12 13 12 13 14 13 15 14 13 13 13
12 13 14 11 2 3 4 3 2 2 3 2 2 4 4 3 2 1 4 4 2 4 6 6 3 2 1 2 3 2 3 4 4 2 4 6 7 4 2 8 13 14 14 14 14 13 14 14 13 13 15 14 14 14
10 10 2 4 2 3 3 4 3 3 2 3 4 5 5 7 3 4 5 5 3 4 4 2 2 3 2 2 3 4 3 1 3 4 5 5 4 5 9 11 12 14 15 14 14 13 14 12 12 14 14 13 11 11
6 3 1 2 4 6 7 4 3 3 3 3 4 5 6 7 7 6 4 4 2 3 3 3 2 2 4 3 3 2 2 4 3 3 3 7 11 12 13 14 15 15 15 14 13 15 14 14 13 12 10 10 10 9
4 4 3 3 5 4 2 3 2 3 5 5 4 4 4 5 7 8 4 4 5 2 2 3 2 2 3 4 3 3 3 4 3 3 4 5 8 8 9 11 12 13 13 14 15 14 13 12 9 8 12 11 12 10
4 4 5 6 3 2 2 3 2 3 4 3 6 7 7 7 7 8 7 5 4 1 2 2 3 2 2 2 5 5 6 5 2 2 3 5 5 4 6 9 10 11 12 13 11 9 10 9 10 11 10 8 7 6
4 3 2 4 4 2 2 2 4 3 3 2 5 4 5 7 6 5 5 5 4 3 4 3 0 3 1 3 4 4 4 7 4 4 1 4 4 3 2 3 5 10 10 13 15 10 11 10 10 9 9 7 7 7
2 2 1 2 2 2 2 3 3 2 4 4 3 4 4 5 5 3 3 3 4 3 2 1 2 3 3 3 2 3 3 4 6 4 3 3 0 3 6 8 9 8 6 6 7 5 4 7 10 10 9 8 7 8
2 1 2 1 2 3 2 3 4 5 3 4 4 1 3 2 3 2 1 4 1 2 3 4 4 1 2 4 3 3 5 7 7 7 4 2 2 4 3 6 7 6 6 7 8 6 7 9 9 9 8 8 6 7
1 1 1 2 1 0 3 2 3 1 3 3 3 3 2 3 2 3 2 3 3 4 5 3 3 2 3 4 4 4 8 3 3 4 6 5 4 5 7 6 6 6 6 8 6 6 6 8 9 9 9 8 7 6
1 1 1 1 2 3 1 2 1 2 3 2 2 3 3 2 2 1 2 2 2 5 5 6 6 5 5 6 3 1 3 5 5 6 5 8 2 5 4 4 4 4 2 5 7 6 4 7 11 10 10 9 8 7
2 1 2 3 3 2 2 2 2 3 2 2 3 3 3 2 1 1 1 2 2 1 3 5 5 4 4 5 3 2 2 3 4 5 4 4 8 2 3 3 2 2 4 6 7 8 6 6 10 11 11 10 9 8
2 3 2 1 1 1 2 2 3 3 3 2 1 3 3 3 3 2 1 2 1 3 6 9 8 7 6 8 6 4 3 5 7 6 7 9 9 6 4 4 5 6 7 7 7 8 9 7 8 10 11 11 8 8
2 2 2 2 2 2 3 3 2 2 2 3 3 3 3 3 2 2 2 4 5 9 15 12 10 7 6 6 8 4 6 8 10 8 6 7 10 10 9 7 5 8 4 6 7 7 8 8 9 11 12 12 11 12
1 2 1 2 3 2 3 2 1 2 3 3 5 4 7 6 3 2 2 5 12 16 17 17 12 10 8 6 5 5 5 5 6 6 8 10 11 11 11 11 10 8 8 8 7 6 6 5 6 7 9 7 8 13
2 1 2 3 2 2 2 2 1 2 2 3 3 2 2 3 3 5 12 15 18 12 9 8 6 3 4 5 5 4 5 6 5 7 9 6 6 10 11 11 10 10 10 11 11 10 7 9 5 4 3 1 1 3
1 2 1 2 2 1 2 1 1 1 1 1 1 2 3 3 10 17 13 11 8 7 8 6 7 5 4 5 4 2 2 5 10 10 4 3 2 1 4 7 7 8 8 10 11 9 12 12 12 13 12 10 5 1
1 1 2 2 2 1 2 4 4 2 2 2 5 4 3 2 6 8 9 9 10 10 8 8 6 2 2 5 6 5 3 3 3 5 6 4 1 1 0 2 4 3 3 6 7 7 7 9 10 11 7 8 11 9
2 2 2 2 1 1 3 2 3 2 3 3 4 4 2 3 4 3 9 12 11 10 11 9 9 7 0 5 7 6 6 5 3 2 4 5 3 1 2 1 0 1 3 5 6 8 8 9 6 9 9 7 7 9
2 3 2 2 2 3 2 2 2 3 7 8 9 7 6 5 5 4 16 18 17 17 15 14 11 9 8 5 3 3 3 5 5 2 1 3 1 2 4 4 2 2 3 5 5 5 6 7 8 9 7 5 4 4
Wind_Direction
304 292 291 295 301 305 311 314 315 317 318 316 316 316 318 314 313 308 285 234 242 251 285 276 273 266 262 259 271 329 287 181 226 249 240 230 255 229 242 217 196 199 200 213 235 229 234 129 141 217 355 47 16 240
305 294 288 290 295 300 305 306 310 312 314 315 312 308 309 306 296 292 279 273 231 234 271 291 281 271 261 257 285 274 292 300 297 267 250 308 242 254 247 211 206 227 210 230 227 217 111 289 15 16 331 326 323 253
314 301 291 293 294 299 305 304 306 308 311 314 315 310 308 303 293 273 273 281 261 265 277 255 262 248 240 236 238 249 249 232 230 342 313 281 270 305 245 241 200 197 263 241 178 199 229 255 252 258 285 282 296 243
316 306 298 298 299 302 304 305 304 305 308 309 310 306 307 306 298 284 266 263 229 272 283 304 316 279 250 236 222 222 244 285 279 278 272 273 278 78 290 321 269 335 161 187 216 273 284 283 271 277 268 244 209 185
327 319 310 304 300 302 302 302 300 302 303 305 304 301 304 304 302 291 275 261 235 214 286 298 303 267 277 223 222 216 227 243 264 272 233 252 272 285 229 275 254 194 191 215 236 312 274 281 312 293 237 199 167 164
320 316 312 308 305 302 299 297 295 298 301 305 305 304 306 303 307 299 292 194 217 202 269 285 327 290 255 238 208 207 216 223 228 225 245 256 262 270 272 255 246 229 238 285 284 346 311 290 264 239 193 158 146 154
318 316 312 307 301 300 298 299 300 302 303 307 310 310 307 299 267 212 302 25 171 178 236 275 280 181 111 172 160 184 195 203 215 223 229 253 244 228 263 259 248 277 293 274 267 242 220 195 162 153 147 130 125 126
315 313 311 306 305 302 300 299 304 306 307 310 313 312 307 290 227 239 245 216 164 188 234 269 272 247 174 220 154 167 175 201 198 234 235 228 235 226 257 233 271 294 291 201 195 199 234 135 133 129 132 130 128 131
308 307 305 304 305 304 305 307 309 308 308 313 314 311 238 193 212 151 88 197 191 246 274 243 267 330 121 63 125 204 210 202 198 221 229 219 215 222 222 240 283 190 120 84 163 155 135 131 124 128 126 127 126 133
304 305 304 306 310 310 306 309 308 308 312 315 309 239 211 151 299 290 173 194 169 202 225 249 270 255 314 241 173 259 209 249 204 215 220 222 235 223 237 236 198 264 244 229 128 124 137 126 128 132 112 119 131 136
299 300 302 304 309 311 303 306 309 313 331 310 293 282 339 312 258 208 234 204 173 221 207 235 235 243 262 233 213 200 248 274 245 179 206 214 221 221 229 244 248 236 244 227 278 148 70 109 114 110 101 107 116 127
295 297 300 307 311 305 300 301 302 301 300 316 298 301 291 263 216 234 222 196 208 265 316 245 228 218 232 175 184 194 245 221 248 130 220 238 228 223 216 225 235 228 223 225 58 149 107 89 102 135 123 106 113 110
297 298 309 312 300 295 292 294 281 269 303 272 210 241 232 228 241 245 259 95 322 277 252 260 295 258 206 217 196 196 258 240 336 258 216 212 48 169 227 233 216 191 185 140 119 111 116 117 106 90 92 91 99 109
295 303 303 299 296 287 284 258 215 314 272 260 271 255 235 201 227 358 332 301 307 299 320 305 255 289 51 197 210 218 202 287 230 214 201 15 334 311 257 202 176 178 155 136 135 140 122 106 98 92 95 99 105 109
299 296 298 302 338 121 158 188 281 313 281 254 263 254 243 334 179 234 290 301 296 279 303 295 247 248 163 271 269 298 226 215 251 306 341 325 308 296 150 165 163 153 141 140 129 118 108 106 103 97 94 98 103 111
297 311 227 200 195 227 257 289 265 202 250 240 233 254 248 269 304 335 313 321 331 302 294 243 309 290 225 224 236 216 227 344 13 321 309 296 76 103 114 112 115 120 122 117 113 110 105 102 102 101 98 96 101 110
301 232 206 263 267 287 285 249 199 215 241 230 228 248 276 289 293 305 312 303 297 328 333 294 350 304 294 236 216 309 20 341 305 313 32 57 86 92 99 104 107 107 104 103 101 98 99 105 107 105 100 97 100 103
241 242 269 274 304 299 204 223 250 244 236 234 248 265 236 256 279 284 278 300 308 313 295 6 292 266 306 346 324 351 342 332 335 70 56 69 62 67 73 81 85 96 99 99 99 100 102 106 107 102 107 110 109 107
246 259 264 277 271 284 247 194 241 266 255 254 238 241 255 281 282 277 274 257 263 273 283 254 257 267 288 328 25 40 14 352 313 76 54 73 75 63 88 97 93 94 99 107 110 97 97 92 106 115 117 116 95 81
252 259 263 234 184 239 241 225 211 259 274 336 285 297 300 291 292 286 261 245 244 221 227 236 6 338 26 45 35 52 27 348 3 110 99 95 98 125 124 76 102 125 114 116 98 108 117 126 127 131 120 104 93 88
163 169 107 145 178 231 295 292 238 252 308 287 342 302 291 286 257 245 208 185 213 241 261 308 23 30 58 76 91 73 37 27 12 344 345 27 198 164 159 144 146 122 123 125 154 122 185 147 145 142 153 130 107 92
169 153 203 195 244 180 252 246 289 321 271 299 331 253 260 329 301 326 31 221 225 322 334 332 334 314 267 296 336 149 81 40 319 329 51 235 169 158 164 156 151 146 144 145 142 147 133 142 152 163 168 140 145 117
141 161 187 227 266 157 259 251 264 285 282 295 284 300 259 192 244 153 197 21 351 326 318 7 352 306 301 299 260 220 159 141 336 355 0 21 76 73 141 155 183 162 155 161 173 173 156 136 167 175 163 171 170 153
89 255 300 269 228 277 272 249 207 260 249 256 276 283 279 335 136 248 64 63 354 355 11 1 4 358 355 352 20 43 188 165 252 270 338 339 51 95 54 116 158 168 188 161 189 179 191 193 178 195 185 184 186 197
250 156 176 262 224 259 276 306 260 259 295 335 317 304 360 319 254 87 142 195 159 258 358 358 343 326 308 306 286 244 204 236 241 266 245 282 295 256 209 185 187 224 210 216 209 214 193 176 185 194 195 196 195 190
260 169 206 54 84 257 278 297 349 346 320 316 322 318 306 294 253 159 136 148 3 328 336 327 317 305 311 294 284 240 261 275 241 242 221 202 238 253 259 260 246 226 214 238 257 215 209 200 193 190 198 198 210 224
248 158 162 206 296 271 261 268 299 285 306 341 348 329 310 287 323 65 31 25 356 332 315 311 291 288 284 291 290 269 246 237 216 239 268 256 246 246 257 260 254 258 244 238 228 229 236 220 216 211 208 202 199 213
300 295 186 151 241 244 300 303 298 345 8 354 333 355 344 348 320 298 273 299 312 307 301 303 288 259 262 274 291 278 263 240 232 262 265 249 243 243 245 246 246 248 240 242 234 225 214 226 206 188 196 207 240 240
234 185 279 274 254 230 252 266 308 57 37 358 0 306 273 254 273 279 292 294 303 291 286 296 299 208 277 286 267 237 215 207 214 227 237 247 217 211 220 225 231 227 225 222 219 225 211 195 188 153 132 108 186 237
27 48 260 241 257 219 90 313 334 45 6 70 105 264 260 253 274 301 291 300 302 309 313 296 293 338 359 7 2 3 189 223 215 247 276 207 210 141 198 209 205 208 201 204 202 198 208 209 219 252 262 257 277 242
293 262 227 238 256 257 332 353 2 310 287 215 210 232 248 277 294 291 306 342 329 318 328 339 9 142 90 346 355 6 59 40 349 272 270 285 299 78 4 201 194 183 177 193 202 211 193 206 229 231 239 247 233 235
191 249 288 301 2 196 174 207 219 216 208 215 187 220 222 226 19 5 346 351 6 16 17 4 353 19 356 259 285 291 284 294 296 273 220 214 242 301 335 60 210 201 181 171 176 217 225 216 242 252 254 246 234 237
201 219 258 303 322 1 37 288 221 108 86 71 56 46 78 69 49 359 3 15 20 22 18 29 29 22 18 17 4 358 23 60 63 60 204 165 176 10 349 343 356 288 260 249 249 238 224 215 241 246 241 250 237 228